FENGYUN 1C DEB, 37719

Orbit data source: Space-Track

FENGYUN 1C DEB, 37719 is space debris in SSO originally from a launch on Mon, 10 May 1999 UTC launched from the Taiyaun Space Center, China (TSC). Fengyun 1C debris stems from the Chinese weather satellite Fengyun-1C, which was intentionally destroyed by a Chinese anti-satellite missile in 2007. This event dramatically increased the amount of space debris, with thousands of trackable fragments posing hazards to satellites and human spaceflight. The Fengyun 1C debris cloud has become a focal point in discussions about space sustainability and the need for international regulations to prevent the creation of new debris.

Loading next visibility...
Identifier
37719, 1999-025EML
Orbit
SSO
Country
Flag of CNCN / PRC
Related business
Manufacturer
Unknown
Mission
Spacecraft
Bus & Motor
Unknown
Mass
Unknown
Launch date (UTC)
1999-05-10 (27 years ago)
Launch vehicle
Unknown
Launch site
Taiyaun Space Center, China (TSC)
Object type
Payload
Rocket body
Debris
Shape & HBR
Unknown shape, 0.1 m
Radar Cross Section
Small (<0.1 m²)

Expand to show TLE details & history
Last TLE update: 2 weeks ago

TLE from 2 weeks ago
0 FENGYUN 1C DEB
1 37719U 99025EML 26224.04063858  .00001306  00000-0  29128-3 0  9997
2 37719  99.4805 288.6410 0041875 256.3303 223.2917 14.58440191 37687
Epoch: 2026-08-12T00:58Z
TLE epoch observation values (Epoch: 2026-08-12T00:58:31.173Z)
Latitude
59.43916°
Longitude
149.84844°
Altitude
729.883 km
Speed
7.484 km/s
True Right ascension
08h 19m 54s
True Declination
59° 17' 16"
Sunlit
Object was in daylight at epoch
Visualization orbit readout
Latitude
Unknown
Longitude
Unknown
Altitude
Unknown
Speed
Unknown
Apparent Right ascension
Unknown
Apparent Declination
Unknown
Sunlit
N/A
Visualization observer readout
Local Sidereal Time
09:34:04
Azimuth
Unknown
Elevation
Unknown
Doppler factor
Unknown
Orbital elements
Apogee altitude
724.982 km
Perigee altitude
665.741 km
Semi-major axis
7,073.498 km
Eccentricity
0.00419
Inclination
99.4805°
RAAN
288.641°
Arg. of periapsis
256.3303°
True anomaly
222.96391°
Mean anomaly
223.2917°
Eccentric anomaly
223.12768°
Mean motion
3.64831 °/min
Orbital period
98.68 mins
BSTAR
0.00029128
Loading maneuver chart data...
Computing Atmospheric mass density...
Loading historical data...
Loading historical data...
Loading historical data...
Loading historical data...
Loading historical data...
Loading historical data...
Loading historical data...

Documentation

Showing up to 5 results
|